Caribbean Galaxy — 3EZV4 — position and weather

sailwx.info

Track history (hours):
 
Tides and Currents Weather Stations Pressure Air Temp Water Temp Dewpoint Dewpoint Depression Visibility Wind Speed Wind Dir Waves Ship Positions

Caribbean Galaxy

Last reported at 2014-Sep-23 14:33 UTC. Time now 2014-Oct-31 23:48 UTC.
Position N 08°56' E 123°18'.
Warning: this ship's position is 38 days out of date.

Length 246 m; draft 14.2 m.

Type: Ship (hazmat cat A). MMSI: 357449000.

Date/timePositionNaut miles runAvg speedWind from/ knotsBaromVisibWave heightAir tempDewpointWater temp
2014-Sep-23 14:33N 08°56' E 123°18'1311.2
2014-Sep-23 13:25N 08°56' E 123°05'1011.1
2014-Sep-23 12:33N 08°54' E 122°55'1712.2
2014-Sep-23 11:08N 08°51' E 122°38'  
2014-Sep-18 18:32N 01°15' E 104°06'10 9.8
2014-Sep-18 17:33N 01°16' E 103°56'1 0.7
2014-Sep-18 16:31N 01°16' E 103°55'0 0.0
2014-Sep-18 15:31N 01°16' E 103°55'0 0.0
2014-Sep-18 14:31N 01°16' E 103°55'0 0.1
2014-Sep-18 13:31N 01°16' E 103°55'0 0.2
2014-Sep-18 12:28N 01°16' E 103°55'0 0.1
2014-Sep-18 11:31N 01°16' E 103°55'0 0.0
2014-Sep-18 10:31N 01°16' E 103°55'0 0.0
2014-Sep-18 09:31N 01°16' E 103°55'0 0.0
2014-Sep-18 08:28N 01°16' E 103°55'0 0.0
2014-Sep-18 07:31N 01°16' E 103°55'0 0.0
2014-Sep-18 06:31N 01°16' E 103°55'0 0.0
2014-Sep-18 05:31N 01°16' E 103°55'0 0.0
2014-Sep-18 04:31N 01°16' E 103°55'1 1.4
2014-Sep-18 03:33N 01°15' E 103°54'7 6.6
2014-Sep-18 02:33N 01°11' E 103°49'9 8.6
2014-Sep-18 01:33N 01°05' E 103°43'9 8.6
2014-Sep-18 00:33N 01°06' E 103°34'3 3.1
2014-Sep-17 23:33N 01°07' E 103°37'0 0.0
2014-Sep-17 01:27N 01°07' E 103°37'0 0.2
2014-Sep-17 00:33N 01°07' E 103°37'0 0.4
2014-Sep-16 23:33N 01°07' E 103°36'1 1.2
2014-Sep-16 22:23N 01°09' E 103°37'0 0.0
2014-Sep-16 21:28N 01°09' E 103°37'0 0.1
2014-Sep-16 20:29N 01°09' E 103°37'0 0.1
2014-Sep-16 19:31N 01°09' E 103°37'0 0.0
2014-Sep-16 18:28N 01°09' E 103°37'0 0.1
2014-Sep-16 17:31N 01°09' E 103°37'1 0.7
2014-Sep-16 16:33N 01°09' E 103°37'4 4.1
2014-Sep-16 15:33N 01°10' E 103°41'6 5.6
2014-Sep-16 14:33N 01°10' E 103°47'10 9.6
2014-Sep-16 13:33N 01°14' E 103°55'1110.7
2014-Sep-16 12:33N 01°16' E 104°06'  
Track history (hours):
 
Tides and Currents Weather Stations Pressure Air Temp Water Temp Dewpoint Dewpoint Depression Visibility Wind Speed Wind Dir Waves Ship Positions

Caribbean Galaxy

Last reported at 2014-Sep-23 14:33 UTC. Time now 2014-Oct-31 23:48 UTC.
Position N 08°56' E 123°18'.
Warning: this ship's position is 38 days out of date.

Length 246 m; draft 14.2 m.

Type: Ship (hazmat cat A). MMSI: 357449000.

Date/timePositionNaut miles runAvg speedWind from/ knotsBaromVisibWave heightAir tempDewpointWater temp
2014-Sep-23 14:33N 08°56' E 123°18'1311.2
2014-Sep-23 13:25N 08°56' E 123°05'1011.1
2014-Sep-23 12:33N 08°54' E 122°55'1712.2
2014-Sep-23 11:08N 08°51' E 122°38'  
2014-Sep-18 18:32N 01°15' E 104°06'10 9.8
2014-Sep-18 17:33N 01°16' E 103°56'1 0.7
2014-Sep-18 16:31N 01°16' E 103°55'0 0.0
2014-Sep-18 15:31N 01°16' E 103°55'0 0.0
2014-Sep-18 14:31N 01°16' E 103°55'0 0.1
2014-Sep-18 13:31N 01°16' E 103°55'0 0.2
2014-Sep-18 12:28N 01°16' E 103°55'0 0.1
2014-Sep-18 11:31N 01°16' E 103°55'0 0.0
2014-Sep-18 10:31N 01°16' E 103°55'0 0.0
2014-Sep-18 09:31N 01°16' E 103°55'0 0.0
2014-Sep-18 08:28N 01°16' E 103°55'0 0.0
2014-Sep-18 07:31N 01°16' E 103°55'0 0.0
2014-Sep-18 06:31N 01°16' E 103°55'0 0.0
2014-Sep-18 05:31N 01°16' E 103°55'0 0.0
2014-Sep-18 04:31N 01°16' E 103°55'1 1.4
2014-Sep-18 03:33N 01°15' E 103°54'7 6.6
2014-Sep-18 02:33N 01°11' E 103°49'9 8.6
2014-Sep-18 01:33N 01°05' E 103°43'9 8.6
2014-Sep-18 00:33N 01°06' E 103°34'3 3.1
2014-Sep-17 23:33N 01°07' E 103°37'0 0.0
2014-Sep-17 01:27N 01°07' E 103°37'0 0.2
2014-Sep-17 00:33N 01°07' E 103°37'0 0.4
2014-Sep-16 23:33N 01°07' E 103°36'1 1.2
2014-Sep-16 22:23N 01°09' E 103°37'0 0.0
2014-Sep-16 21:28N 01°09' E 103°37'0 0.1
2014-Sep-16 20:29N 01°09' E 103°37'0 0.1
2014-Sep-16 19:31N 01°09' E 103°37'0 0.0
2014-Sep-16 18:28N 01°09' E 103°37'0 0.1
2014-Sep-16 17:31N 01°09' E 103°37'1 0.7
2014-Sep-16 16:33N 01°09' E 103°37'4 4.1
2014-Sep-16 15:33N 01°10' E 103°41'6 5.6
2014-Sep-16 14:33N 01°10' E 103°47'10 9.6
2014-Sep-16 13:33N 01°14' E 103°55'1110.7
2014-Sep-16 12:33N 01°16' E 104°06'  

Dump ship's entire track history